Location: Pace/Milton
(30.6162°N, 87.1503°W)
Time: 13:05:44
(UTC-06:00)

ISS - Pass Details

Date: 08 December 2021
Orbit: 413 x 422 km, 51.6° (Epoch: 24 January)

Event Time Altitude Azimuth Distance (km) Brightness Sun altitude
Rises 17:08:24 0° 327° (NNW) 2,376 0.2 -4.9°
Reaches altitude 10° 17:10:44 10° 340° (NNW) 1,507 -1.0 -5.4°
Maximum altitude 17:13:39 26° 39° (NE) 861 -2.7 -5.9°
Drops below altitude 10° 17:16:32 10° 99° (E) 1,495 -1.5 -6.5°
Enters shadow 17:18:23 - 111° (ESE) 2,179 -0.6 -6.9°
